Weather in Chazhajskij Lesouchastok

Russia / Udmurt Republic     58°19′53″N   52°42′53″E
temp.,
°C
wind,
m/s
gust,
m/s
humid.,
%
clouds,
%
prec.,
mm/h
press.,
hPa
HPBL,
m
12 may, wed
wed1201:00+12ne248422 0.0 102969
04:00+10ene2290100 0.0 103023
07:00+14ene23745 0.0 1030185
10:00+20e22524 0.0 1030756
13:00+24ese11330 0.0 10291392
16:00+24sw11295 0.0 10281555
19:00+21wsw11415 0.0 102711
22:00+16ne115044 0.0 102811
13 may, thu
thu1301:00+14ene11565 0.0 102810
04:00+13ese11625 0.0 102810
07:00+17ese125817 0.0 1028126
10:00+23sse23484 0.0 1028657
13:00+26s34350 0.0 10262345
16:00+26s45295 0.0 10252523
19:00+22sw3745100 0.0 1025199
22:00+17s1158100 0.0 102511
14 may, fri
fri1401:00+15sse2262100 0.0 102514
04:00+16se256493 0.0 1024117
07:00+18s31062100 0.0 1024327
10:00+23s59435 0.1 1022882
13:00+26sw693313 0.0 10211807
16:00+26sw6941100 0.0 10211931
19:00+22wsw3758100 0.0 1020378
22:00+18sw2478100 0.0 102079
15 may, sat
sat1501:00+16ssw228495 0.3 102036
04:00+14s2284100 0.4 102021
07:00+18ssw366759 0.0 1020255
10:00+23sw484899 0.0 1019798
13:00+26sw51039100 0.0 10191522
16:00+27sw5103468 0.0 10181464
19:00+24sw41045100 0.0 1017518
22:00+19sw414537 0.0 1017459
16 may, sun
sun1601:00+16ssw256452 0.0 101791
04:00+14s25715 0.0 101886
07:00+18ssw39575 0.0 1017317
10:00+24sw59385 0.0 1017796
13:00+28sw610282 0.0 10152785
16:00+28sw510295 0.0 10143164
19:00+25sw51140100 0.0 1013815
22:00+20sw414584 0.0 1013408